Regional Weather Roundup
Issued by NWS

Home | Current Version | Previous Version | Text Only | Print | Product List | Glossary Off
Versions: 1 2 3 4 5 6 7 8 9 10 11 12 13 14 15 16 17 18 19 20 21 22 23 24 25 26 27 28

000
ASUS45 KCYS 181110
RWRWY

WYOMING REGIONAL WEATHER ROUNDUP
NATIONAL WEATHER SERVICE CHEYENNE WY
500 AM MDT WED OCT 18 2017

NOTE:  "FAIR" INDICATES FEW OR NO CLOUDS BELOW 12,000 FEET
WITH NO SIGNIFICANT WEATHER AND/OR OBSTRUCTIONS TO VISIBILITY.

WYZ001-181200-
YELLOWSTONE NATIONAL PARK

CITY           SKY/WX    TMP DP  RH WIND       PRES   REMARKS
LK YELLOWSTONE NOT AVBL
W YELLOWSTONE  NOT AVBL

$$
WYZ002>013-054>058-071-098>099-181200-
NORTHERN WYOMING

CITY           SKY/WX    TMP DP  RH WIND       PRES   REMARKS
JACKSON        FAIR      39  16  39 W10       30.18F WCI  32
CODY           NOT AVBL
GREYBULL       FAIR      40  25  55 N3        29.95R
WORLAND        FAIR      33  27  78 CALM      29.97R
SHERIDAN       FAIR      45  23  42 S7        29.96R
BUFFALO        FAIR      55  13  18 NW14      30.01R
GILLETTE       FAIR      40  22  48 SW6       29.95R
HULETT         FAIR      59  19  21 N3        29.94S
NEWCASTLE      FAIR      45  23  42 N10       29.94R

$$
WYZ014>020-022>026-101>103-181200-
CENTRAL WYOMING

CITY           SKY/WX    TMP DP  RH WIND       PRES   REMARKS
BIG PINEY      FAIR      28  11  48 W8        30.19F WCI  20
PINEDALE       FAIR      27  16  63 CALM      30.21R
DUBOIS         FAIR      45  10  24 N23G31    30.12R
LANDER         FAIR      46  16  30 W9        30.07R
RIVERTON       FAIR      50  16  25 W15       30.05R
CASPER         FAIR      45  11  25 SW13      30.05R
DOUGLAS        FAIR      50  13  22 NW13      30.01R

$$
WYZ021-027>030-104>119-181200-
SOUTHERN WYOMING

CITY           SKY/WX    TMP DP  RH WIND       PRES   REMARKS
EVANSTON       FAIR      45   7  21 W3        30.26S
KEMMERER       FAIR      37   5  25 SW5       30.23F WCI  34
FORT BRIDGER   FAIR      47   4  17 SW10      30.27S
ROCK SPRINGS   FAIR      41   3  20 SW8       30.20F
DIXON          FAIR      27  15  61 CALM      30.26S
RAWLINS        FAIR      42   8  24 SW10      30.18R
SARATOGA       FAIR      34  16  47 NW6       30.20S WCI  29
LARAMIE        FAIR      40  12  32 W10       30.17R WCI  33
CHEYENNE       FAIR      54  11  18 W23G30    30.06R
TORRINGTON     FAIR      58   9  14 W7        29.95R
PINE BLUFFS    FAIR      52  18  25 SW9       30.03S

$$




USA.gov is the U.S. government's official web portal to all federal, state and local government web resources and services.